This demonstration page uses our WeatherBlox Daily Observations layout. Learn more.

Hourly Observations for March 5, 2019

Temp ( °F °C ) Dew Point ( °F °C ) Humidity (%) Winds ( mph kmh ) Pressure ( in mb ) Visibility ( mi km ) Precip ( " mm )
12:15 am 00:15 Clear 5 -14.9 -3 -19.6 68 68 WNW 7 11 30.5 1033 10 16.0934 0 0
12:35 am 00:35 Clear 4 -15.4 -4 -19.9 69 69 WNW 8 13 30.51 1033 10 16.0934 0 0
12:55 am 00:55 Clear 2 -16.5 -5 -20.7 70 70 WNW 8 13 30.53 1034 10 16.0934 0 0
1:15 am 01:15 Clear 0 -17.7 -7 -21.5 72 72 W 8 13 30.55 1034 10 16.0934 0 0
1:35 am 01:35 Clear 5 -15 -2 -19.1 71 71 W 9 15 30.52 1033 10 16.0934 0 0
1:55 am 01:55 Clear 4 -15.3 -3 -19.3 72 72 W 8 13 30.52 1034 10 16.0934 0 0
2:15 am 02:15 Clear 2 -16.8 -5 -20.6 73 73 W 6 9 30.54 1034 10 16.0934 0 0
2:35 am 02:35 Clear 1 -17.5 -5 -20.8 76 76 WNW 8 13 30.55 1034 10 16.0934 0 0
2:55 am 02:55 Clear -1 -18.1 -6 -21 78 78 WNW 9 15 30.55 1035 10 16.0934 0 0
3:15 am 03:15 Clear -1 -18.6 -7 -21.5 78 78 NW 9 15 30.57 1035 10 16.0934 0 0
3:35 am 03:35 Clear 1 -17 -5 -20.5 74 74 WNW 10 17 30.54 1034 10 16.0934 0 0
3:55 am 03:55 Clear 1 -17 -5 -20.3 76 76 WNW 10 17 30.54 1034 10 16.0934 0 0
4:15 am 04:15 Clear 3 -16.1 -4 -19.8 73 73 WNW 9 15 30.54 1034 10 16.0934 0 0
4:35 am 04:35 Clear 3 -16 -4 -20 72 72 WNW 10 17 30.54 1034 10 16.0934 0 0
4:55 am 04:55 Clear 4 -15.7 -4 -20 70 70 WNW 12 19 30.55 1034 10 16.0934 0 0
5:15 am 05:15 Clear 4 -15.6 -4 -20.1 69 69 WNW 10 17 30.56 1035 10 16.0934 0 0
5:35 am 05:35 Clear 4 -15.3 -4 -20.1 67 67 WNW 15 24 30.56 1035 10 16.0934 0 0
5:55 am 05:55 Clear 4 -15.7 -5 -20.5 67 67 WNW 10 17 30.58 1035 10 16.0934 0 0
6:15 am 06:15 Clear 2 -16.5 -6 -20.9 69 69 WNW 10 17 30.59 1036 10 16.0934 0 0
6:35 am 06:35 Clear 2 -16.5 -6 -21 68 68 WNW 9 15 30.61 1036 10 16.0934 0 0
6:55 am 06:55 Clear 3 -16.3 -5 -20.6 70 70 NW 10 17 30.59 1036 10 16.0934 0 0
7:15 am 07:15 Sunny 2 -16.5 -5 -20.6 71 71 NW 8 13 30.61 1036 10 16.0934 0 0
7:35 am 07:35 Sunny 2 -16.4 -6 -20.9 68 68 WNW 8 13 30.62 1037 10 16.0934 0 0
7:55 am 07:55 Sunny 2 -16.5 -6 -20.9 69 69 WNW 7 11 30.63 1037 10 16.0934 0 0
8:15 am 08:15 Sunny 5 -15.2 -4 -19.9 68 68 NW 12 19 30.61 1037 10 16.0934 0 0
8:35 am 08:35 Sunny 8 -13.3 -3 -19.2 61 61 NW 10 17 30.6 1036 10 16.0934 0 0
8:55 am 08:55 Sunny 10 -12.1 -2 -19 57 57 NW 13 20 30.59 1036 10 16.0934 0 0
9:15 am 09:15 Sunny 10 -12.2 -2 -18.8 58 58 NW 13 20 30.6 1036 10 16.0934 0 0
9:35 am 09:35 Sunny 10 -12.3 -1 -18.4 61 61 WNW 14 22 30.62 1037 10 16.0934 0 0
9:55 am 09:55 Sunny 11 -11.8 0 -17.9 61 61 WNW 10 17 30.62 1037 10 16.0934 0 0
10:15 am 10:15 Sunny 13 -10.8 1 -17.2 60 60 NW 13 20 30.62 1037 10 16.0934 0 0
10:35 am 10:35 Sunny 14 -10.2 2 -16.5 60 60 NW 15 24 30.62 1037 10 16.0934 0 0
10:55 am 10:55 Sunny 14 -9.8 3 -16.1 60 60 NW 15 24 30.61 1037 10 16.0934 0 0
11:15 am 11:15 Sunny 15 -9.5 4 -15.7 61 61 NW 14 22 30.61 1037 10 16.0934 0 0
11:35 am 11:35 Sunny 16 -9 3 -16 57 57 NW 16 26 30.61 1036 10 16.0934 0 0
11:55 am 11:55 Sunny 16 -8.7 4 -15.3 59 59 NW 12 19 30.61 1037 10 16.0934 0 0
12:15 pm 12:15 Sunny 17 -8.4 5 -15.2 58 58 WNW 12 19 30.62 1037 10 16.0934 0 0
12:35 pm 12:35 Sunny 17 -8.1 5 -15.1 57 57 NW 12 19 30.61 1036 10 16.0934 0 0
12:55 pm 12:55 Sunny 18 -7.7 5 -14.9 57 57 NW 13 20 30.61 1037 10 16.0934 0 0
1:15 pm 13:15 Sunny 19 -7.2 6 -14.6 56 56 WNW 13 20 30.6 1036 10 16.0934 0 0
1:35 pm 13:35 Sunny 19 -7 6 -14.6 55 55 WNW 10 17 30.6 1036 10 16.0934 0 0
1:55 pm 13:55 Sunny 21 -6.3 7 -13.9 55 55 WNW 12 19 30.57 1035 10 16.0934 0 0
2:15 pm 14:15 Sunny 21 -6.1 7 -14 54 54 WNW 10 17 30.56 1035 10 16.0934 0 0
2:35 pm 14:35 Sunny 21 -6 7 -14.1 53 53 WNW 10 17 30.55 1034 10 16.0934 0 0
2:55 pm 14:55 Sunny 22 -5.5 8 -13.3 55 55 WNW 7 11 30.54 1034 10 16.0934 0 0
3:15 pm 15:15 Sunny 22 -5.5 8 -13.5 54 54 WNW 8 13 30.55 1035 10 16.0934 0 0
3:35 pm 15:35 Sunny 23 -5.2 8 -13.2 54 54 W 8 13 30.55 1034 10 16.0934 0 0
3:55 pm 15:55 Sunny 23 -5.1 9 -12.9 55 55 W 9 15 30.55 1034 10 16.0934 0 0
4:15 pm 16:15 Sunny 22 -5.5 8 -13.1 55 55 W 7 11 30.55 1035 10 16.0934 0 0
4:35 pm 16:35 Sunny 23 -5 10 -12.5 56 56 W 10 17 30.54 1034 10 16.0934 0 0
4:55 pm 16:55 Sunny 23 -5 9 -12.7 55 55 W 5 7 30.53 1034 10 16.0934 0 0
5:15 pm 17:15 Sunny 23 -5.2 10 -12.5 57 57 W 7 11 30.52 1033 10 16.0934 0 0
5:35 pm 17:35 Sunny 22 -5.6 9 -12.9 57 57 W 5 7 30.52 1034 10 16.0934 0 0
5:55 pm 17:55 Sunny 21 -6.1 8 -13.2 58 58 W 7 11 30.53 1034 10 16.0934 0 0
6:15 pm 18:15 Sunny 20 -6.7 8 -13.5 59 59 WSW 5 7 30.53 1034 10 16.0934 0 0
6:35 pm 18:35 Clear 19 -7.1 8 -13.4 61 61 WSW 5 7 30.54 1034 10 16.0934 0 0
6:55 pm 18:55 Clear 18 -8 8 -13.5 65 65 SW 5 7 30.55 1034 10 16.0934 0 0
7:15 pm 19:15 Clear 17 -8.3 8 -13.6 66 66 SW 7 11 30.54 1034 10 16.0934 0 0
7:35 pm 19:35 Clear 16 -9 7 -13.8 68 68 SW 6 9 30.54 1034 10 16.0934 0 0
7:55 pm 19:55 Clear 17 -8.3 7 -13.7 65 65 SW 5 7 30.53 1034 10 16.0934 0 0
8:15 pm 20:15 Clear 15 -9.2 7 -14.1 68 68 SW 3 6 30.53 1034 10 16.0934 0 0
8:35 pm 20:35 Clear 16 -9.1 7 -13.8 69 69 SW 9 15 30.53 1034 10 16.0934 0 0
8:55 pm 20:55 Clear 15 -9.2 7 -13.9 69 69 SW 9 15 30.54 1034 10 16.0934 0 0
9:15 pm 21:15 Clear 15 -9.5 7 -14 70 70 SW 3 6 30.54 1034 10 16.0934 0 0
9:35 pm 21:35 Clear 15 -9.7 7 -13.9 72 72 SW 5 7 30.54 1034 10 16.0934 0 0
9:55 pm 21:55 Clear 15 -9.6 7 -14.1 70 70 WSW 3 6 30.54 1034 10 16.0934 0 0
10:15 pm 22:15 Clear 14 -10.1 7 -14 73 73 Calm 30.56 1035 10 16.0934 0 0
10:35 pm 22:35 Clear 15 -9.3 8 -13.3 73 73 WSW 3 6 30.54 1034 10 16.0934 0 0
10:55 pm 22:55 Clear 15 -9.3 8 -13.3 73 73 W 3 6 30.53 1034 10 16.0934 0 0
11:15 pm 23:15 Clear 16 -8.7 8 -13.3 70 70 Calm 30.52 1034 10 16.0934 0 0
11:35 pm 23:35 Clear 13 -10.7 6 -14.6 73 73 Calm 30.52 1034 10 16.0934 0 0
11:55 pm 23:55 Mostly Cloudy 16 -9.1 8 -13.1 73 73 SSW 7 11 30.52 1033 10 16.0934 0 0

Powered by AerisWeather